�������l�o���
Date,Time,MP-1(��Sv/h),MP-2(��Sv/h),MP-3(��Sv/h),MP-4(��Sv/h),MP-5(��Sv/h),MP-6(��Sv/h),MP-7(��Sv/h),MP-8(��Sv/h),����,����(m/s),���J
2018/06/04,00:00,0.862,1.279,0.879,1.601,1.125,0.478,0.837,0.800,��쐼,3.6,��
2018/06/04,00:10,0.862,1.277,0.877,1.599,1.127,0.479,0.838,0.799,��쐼,3.2,��
2018/06/04,00:20,0.862,1.279,0.879,1.601,1.127,0.478,0.838,0.799,��쐼,3.5,��
2018/06/04,00:30,0.860,1.279,0.878,1.601,1.126,0.479,0.838,0.800,��쐼,2.6,��
2018/06/04,00:40,0.863,1.279,0.878,1.600,1.126,0.479,0.840,0.799,��쐼,2.6,��
2018/06/04,00:50,0.859,1.278,0.879,1.598,1.127,0.478,0.839,0.797,��쐼,2.3,��
2018/06/04,01:00,0.859,1.280,0.878,1.601,1.125,0.479,0.839,0.797,��쐼,2.0,��
2018/06/04,01:10,0.859,1.277,0.877,1.599,1.125,0.479,0.839,0.799,��쐼,1.2,��
2018/06/04,01:20,0.860,1.281,0.877,1.601,1.124,0.478,0.840,0.799,��쐼,0.9,��
2018/06/04,01:30,0.859,1.278,0.879,1.598,1.126,0.480,0.839,0.797,��,0.6,��
2018/06/04,01:40,0.859,1.278,0.879,1.600,1.127,0.478,0.840,0.797,�k�k��,1.2,��
2018/06/04,01:50,0.861,1.279,0.877,1.600,1.125,0.478,0.839,0.798,-,CALM,��
2018/06/04,02:00,0.860,1.279,0.878,1.600,1.127,0.478,0.839,0.798,���k��,0.9,��
2018/06/04,02:10,0.861,1.278,0.877,1.600,1.125,0.479,0.839,0.797,�k��,1.4,��
2018/06/04,02:20,0.858,1.277,0.877,1.600,1.126,0.479,0.838,0.798,�k��,0.9,��
2018/06/04,02:30,0.860,1.277,0.879,1.601,1.126,0.480,0.840,0.798,-,CALM,��
2018/06/04,02:40,0.861,1.277,0.878,1.600,1.125,0.478,0.839,0.798,-,CALM,��
2018/06/04,02:50,0.862,1.278,0.878,1.599,1.127,0.480,0.837,0.798,-,CALM,��
2018/06/04,03:00,0.859,1.274,0.879,1.598,1.128,0.478,0.837,0.800,�k��,1.2,��
2018/06/04,03:10,0.860,1.279,0.876,1.600,1.124,0.479,0.839,0.797,�k��,0.9,��
2018/06/04,03:20,0.862,1.274,0.877,1.600,1.123,0.478,0.839,0.798,�k��,1.2,��
2018/06/04,03:30,0.859,1.276,0.877,1.601,1.124,0.478,0.838,0.799,�k,1.7,��
2018/06/04,03:40,0.858,1.276,0.878,1.600,1.124,0.479,0.837,0.799,�k�k��,3.9,��
2018/06/04,03:50,0.858,1.274,0.876,1.602,1.123,0.478,0.840,0.797,�k�k��,3.6,��
2018/06/04,04:00,0.862,1.275,0.880,1.601,1.125,0.478,0.836,0.797,�k�k��,4.1,��
2018/06/04,04:10,0.859,1.277,0.877,1.597,1.126,0.479,0.839,0.798,�k�k��,4.1,��
2018/06/04,04:20,0.860,1.274,0.878,1.600,1.125,0.479,0.838,0.799,�k,4.3,��
2018/06/04,04:30,0.860,1.277,0.876,1.598,1.126,0.478,0.839,0.799,�k,3.4,��
2018/06/04,04:40,0.859,1.277,0.877,1.602,1.126,0.478,0.837,0.797,�k�k��,2.6,��
2018/06/04,04:50,0.859,1.276,0.876,1.602,1.123,0.477,0.837,0.798,�k�k��,2.5,��
2018/06/04,05:00,0.861,1.275,0.878,1.602,1.125,0.478,0.839,0.797,�k,2.9,��
2018/06/04,05:10,0.860,1.277,0.879,1.601,1.126,0.478,0.839,0.798,�k,3.0,��
2018/06/04,05:20,0.857,1.280,0.878,1.602,1.125,0.478,0.839,0.800,�k,2.3,��
2018/06/04,05:30,0.860,1.279,0.878,1.602,1.126,0.479,0.838,0.799,�k�k��,2.5,��
2018/06/04,05:40,0.861,1.277,0.878,1.602,1.127,0.479,0.838,0.798,�k�k��,2.6,��
2018/06/04,05:50,0.858,1.276,0.878,1.600,1.128,0.479,0.839,0.797,�k,2.9,��
2018/06/04,06:00,0.859,1.274,0.876,1.602,1.126,0.478,0.839,0.799,�k�k��,3.2,��
2018/06/04,06:10,0.861,1.278,0.878,1.599,1.127,0.479,0.840,0.799,�k�k��,3.7,�L
2018/06/04,06:20,0.862,1.276,0.877,1.601,1.126,0.476,0.837,0.799,�k,3.5,��
2018/06/04,06:30,0.860,1.279,0.876,1.598,1.128,0.477,0.837,0.800,�k�k��,3.7,��
2018/06/04,06:40,0.862,1.278,0.879,1.601,1.124,0.477,0.839,0.798,�k�k��,3.5,��
2018/06/04,06:50,0.862,1.276,0.879,1.602,1.127,0.477,0.839,0.798,�k�k��,3.5,��
2018/06/04,07:00,0.860,1.278,0.879,1.601,1.127,0.478,0.839,0.800,�k�k��,2.8,�L
2018/06/04,07:10,0.862,1.278,0.880,1.599,1.127,0.477,0.836,0.800,�k�k��,3.3,��
2018/06/04,07:20,0.861,1.275,0.880,1.600,1.127,0.474,0.836,0.800,�k�k��,3.3,��
2018/06/04,07:30,0.858,1.277,0.878,1.603,1.126,0.475,0.835,0.800,�k�k��,3.0,��
2018/06/04,07:40,0.859,1.277,0.880,1.600,1.123,0.473,0.838,0.798,�k,2.8,��
2018/06/04,07:50,0.857,1.276,0.879,1.602,1.124,0.474,0.837,0.798,�k�k��,2.6,��
2018/06/04,08:00,0.854,1.272,0.876,1.598,1.123,0.474,0.836,0.797,�k��,2.0,��
2018/06/04,08:10,0.857,1.270,0.878,1.598,1.124,0.475,0.837,0.796,�k��,2.3,��
2018/06/04,08:20,0.856,1.265,0.877,1.601,1.125,0.474,0.839,0.797,�k��,2.6,��
2018/06/04,08:30,0.854,1.270,0.877,1.601,1.124,0.477,0.837,0.796,�k��,2.6,��
2018/06/04,08:40,0.855,1.268,0.876,1.602,1.123,0.475,0.837,0.795,�k�k��,2.5,��
2018/06/04,08:50,0.856,1.265,0.876,1.599,1.124,0.475,0.838,0.795,�k��,2.6,��
2018/06/04,09:00,0.853,1.267,0.877,1.596,1.122,0.475,0.837,0.796,�k��,2.2,��
2018/06/04,09:10,0.859,1.269,0.874,1.599,1.122,0.475,0.837,0.795,���k��,2.6,��
2018/06/04,09:20,0.859,1.268,0.875,1.600,1.123,0.475,0.837,0.797,��,2.3,��
2018/06/04,09:30,0.859,1.274,0.876,1.600,1.123,0.476,0.837,0.795,��,2.3,��
2018/06/04,09:40,0.860,1.270,0.875,1.601,1.126,0.475,0.837,0.795,���쓌,2.2,��
2018/06/04,09:50,0.859,1.272,0.878,1.602,1.128,0.475,0.838,0.795,���쓌,2.0,��
2018/06/04,10:00,0.859,1.267,0.876,1.601,1.128,0.476,0.838,0.798,�쓌,2.9,��
2018/06/04,10:10,0.861,1.272,0.877,1.601,1.126,0.476,0.840,0.797,�쓌,3.3,��
2018/06/04,10:20,0.861,1.273,0.877,1.601,1.127,0.477,0.837,0.794,�쓌,3.3,��
2018/06/04,10:30,0.861,1.273,0.878,1.603,1.127,0.477,0.836,0.796,��쓌,3.1,��
2018/06/04,10:40,0.862,1.271,0.877,1.600,1.127,0.475,0.838,0.796,��쓌,4.1,��
2018/06/04,10:50,0.859,1.272,0.879,1.600,1.127,0.476,0.838,0.797,��쓌,5.9,��
2018/06/04,11:00,0.861,1.274,0.878,1.603,1.128,0.477,0.839,0.798,��쓌,5.2,��
2018/06/04,11:10,0.864,1.277,0.881,1.596,1.126,0.476,0.839,0.795,��쓌,5.9,��
2018/06/04,11:20,0.864,1.276,0.880,1.598,1.128,0.477,0.839,0.797,��쓌,5.3,��
2018/06/04,11:30,0.861,1.275,0.881,1.600,1.129,0.478,0.839,0.796,��쓌,5.6,��
2018/06/04,11:40,0.862,1.277,0.879,1.603,1.132,0.477,0.839,0.798,��쓌,5.5,��
2018/06/04,11:50,0.864,1.281,0.881,1.598,1.131,0.477,0.839,0.798,�쓌,4.6,��
2018/06/04,12:00,0.861,1.277,0.880,1.600,1.129,0.477,0.839,0.797,�쓌,6.0,��
2018/06/04,12:10,0.861,1.281,0.879,1.600,1.130,0.479,0.839,0.797,��쓌,4.8,��
2018/06/04,12:20,0.862,1.280,0.881,1.600,1.131,0.478,0.840,0.801,��쓌,4.5,��
2018/06/04,12:30,0.861,1.283,0.881,1.602,1.132,0.478,0.839,0.797,��쓌,4.7,��
2018/06/04,12:40,0.862,1.281,0.880,1.600,1.131,0.478,0.839,0.798,��쓌,4.2,��
2018/06/04,12:50,0.866,1.284,0.881,1.601,1.132,0.479,0.838,0.798,��쓌,5.4,��
2018/06/04,13:00,0.865,1.281,0.881,1.600,1.132,0.479,0.841,0.798,��쓌,5.6,��
2018/06/04,13:10,0.866,1.280,0.881,1.603,1.133,0.478,0.841,0.797,��쓌,5.3,��
2018/06/04,13:20,0.867,1.282,0.883,1.604,1.134,0.478,0.841,0.798,��쓌,5.7,��
2018/06/04,13:30,0.865,1.285,0.879,1.604,1.134,0.479,0.839,0.799,��쓌,4.4,��
2018/06/04,13:40,0.868,1.280,0.883,1.603,1.134,0.479,0.839,0.797,��쓌,5.0,��
2018/06/04,13:50,0.866,1.275,0.883,1.606,1.134,0.480,0.839,0.797,�쓌,3.6,��
2018/06/04,14:00,0.868,1.275,0.881,1.603,1.135,0.479,0.839,0.799,�쓌,3.9,��
2018/06/04,14:10,0.869,1.275,0.882,1.606,1.134,0.480,0.838,0.798,�쓌,4.5,��
2018/06/04,14:20,0.867,1.276,0.881,1.605,1.135,0.479,0.839,0.798,��쓌,4.0,��
2018/06/04,14:30,0.869,1.274,0.884,1.605,1.133,0.479,0.840,0.796,�쓌,4.8,��
2018/06/04,14:40,0.869,1.277,0.884,1.605,1.134,0.481,0.840,0.797,��쓌,5.0,��
2018/06/04,14:50,0.869,1.275,0.884,1.607,1.135,0.480,0.840,0.799,��쓌,4.6,��
2018/06/04,15:00,0.868,1.276,0.884,1.609,1.136,0.480,0.841,0.798,�쓌,5.3,��
2018/06/04,15:10,0.869,1.277,0.882,1.607,1.134,0.478,0.841,0.798,�쓌,4.5,��
2018/06/04,15:20,0.868,1.271,0.880,1.610,1.136,0.480,0.840,0.800,��쓌,4.8,��
2018/06/04,15:30,0.870,1.281,0.883,1.606,1.138,0.481,0.839,0.798,��쓌,3.8,��
2018/06/04,15:40,0.869,1.288,0.884,1.610,1.136,0.480,0.839,0.798,�쓌,4.2,��
2018/06/04,15:50,0.869,1.283,0.884,1.608,1.136,0.481,0.840,0.801,�쓌,5.0,��
2018/06/04,16:00,0.867,1.286,0.882,1.608,1.134,0.480,0.841,0.799,�쓌,3.9,��
2018/06/04,16:10,0.867,1.286,0.882,1.611,1.134,0.480,0.840,0.798,�쓌,4.3,��
2018/06/04,16:20,0.868,1.288,0.882,1.613,1.132,0.479,0.840,0.799,��쓌,4.4,��
2018/06/04,16:30,0.869,1.290,0.884,1.611,1.136,0.480,0.839,0.797,��쓌,4.4,��
2018/06/04,16:40,0.868,1.289,0.883,1.610,1.136,0.481,0.841,0.797,�쓌,3.9,��
2018/06/04,16:50,0.870,1.289,0.882,1.610,1.133,0.481,0.840,0.799,��쓌,4.3,��
2018/06/04,17:00,0.868,1.291,0.884,1.611,1.134,0.479,0.840,0.799,�쓌,4.1,��
2018/06/04,17:10,0.869,1.289,0.883,1.611,1.133,0.480,0.841,0.799,��쓌,3.4,��
2018/06/04,17:20,0.868,1.288,0.883,1.607,1.133,0.478,0.840,0.798,��쓌,3.1,��
2018/06/04,17:30,0.870,1.292,0.883,1.609,1.133,0.483,0.839,0.799,��쓌,3.8,��
2018/06/04,17:40,0.868,1.290,0.885,1.610,1.136,0.481,0.839,0.798,��쓌,3.8,��
2018/06/04,17:50,0.867,1.289,0.884,1.611,1.134,0.481,0.840,0.799,��쓌,2.6,��
2018/06/04,18:00,0.866,1.288,0.884,1.610,1.135,0.481,0.839,0.802,��쓌,2.8,��
2018/06/04,18:10,0.866,1.291,0.884,1.610,1.135,0.481,0.840,0.801,��쓌,2.0,��
2018/06/04,18:20,0.867,1.290,0.885,1.608,1.135,0.483,0.839,0.802,�쓌,2.3,��
2018/06/04,18:30,0.870,1.292,0.886,1.611,1.132,0.482,0.839,0.799,�쓌,1.5,��
2018/06/04,18:40,0.868,1.290,0.885,1.609,1.134,0.481,0.840,0.800,��쓌,2.3,��
2018/06/04,18:50,0.871,1.289,0.885,1.608,1.136,0.482,0.839,0.800,��쓌,2.3,��
2018/06/04,19:00,0.871,1.290,0.884,1.613,1.134,0.480,0.839,0.801,��,2.3,��
2018/06/04,19:10,0.869,1.291,0.884,1.607,1.134,0.482,0.839,0.800,��쓌,2.6,��
2018/06/04,19:20,0.868,1.293,0.888,1.608,1.135,0.482,0.840,0.800,��쓌,2.9,��
2018/06/04,19:30,0.871,1.293,0.885,1.609,1.137,0.482,0.843,0.801,��쓌,2.8,��
2018/06/04,19:40,0.872,1.293,0.884,1.611,1.136,0.480,0.838,0.801,��,2.0,��
2018/06/04,19:50,0.870,1.289,0.886,1.611,1.134,0.481,0.842,0.800,-,CALM,��
2018/06/04,20:00,0.868,1.290,0.885,1.610,1.135,0.482,0.842,0.801,��,0.9,��
2018/06/04,20:10,0.868,1.290,0.884,1.613,1.137,0.482,0.840,0.800,��,0.9,��
2018/06/04,20:20,0.870,1.289,0.883,1.609,1.137,0.481,0.841,0.800,��쐼,0.9,��
2018/06/04,20:30,0.868,1.291,0.884,1.609,1.133,0.482,0.842,0.799,��,0.9,��
2018/06/04,20:40,0.868,1.287,0.884,1.612,1.138,0.480,0.842,0.798,-,CALM,��
2018/06/04,20:50,0.867,1.290,0.884,1.611,1.137,0.481,0.840,0.802,��,0.9,��
2018/06/04,21:00,0.867,1.289,0.883,1.610,1.137,0.480,0.839,0.798,��,0.9,��
2018/06/04,21:10,0.867,1.288,0.885,1.611,1.135,0.480,0.840,0.799,���쓌,1.4,��
2018/06/04,21:20,0.868,1.289,0.884,1.611,1.136,0.480,0.841,0.800,�쓌,1.7,��
2018/06/04,21:30,0.868,1.291,0.885,1.614,1.136,0.482,0.840,0.802,��쓌,1.2,��
2018/06/04,21:40,0.868,1.289,0.886,1.610,1.137,0.481,0.841,0.799,��쓌,1.2,��
2018/06/04,21:50,0.868,1.285,0.886,1.612,1.134,0.481,0.840,0.801,��쓌,1.2,��
2018/06/04,22:00,0.869,1.283,0.884,1.612,1.136,0.482,0.842,0.800,��쓌,0.9,��
2018/06/04,22:10,0.867,1.289,0.884,1.610,1.137,0.481,0.840,0.799,��쓌,1.5,��
2018/06/04,22:20,0.868,1.288,0.887,1.611,1.133,0.480,0.841,0.802,��,2.6,��
2018/06/04,22:30,0.867,1.289,0.885,1.611,1.134,0.480,0.842,0.800,��쐼,2.5,��
2018/06/04,22:40,0.869,1.286,0.885,1.612,1.133,0.478,0.840,0.800,��쐼,2.0,��
2018/06/04,22:50,0.867,1.289,0.884,1.611,1.135,0.481,0.839,0.801,��,2.3,��
2018/06/04,23:00,0.869,1.289,0.884,1.612,1.135,0.480,0.839,0.800,��,2.2,��
2018/06/04,23:10,0.869,1.287,0.883,1.611,1.136,0.480,0.841,0.800,��,2.2,��
2018/06/04,23:20,0.865,1.285,0.883,1.612,1.135,0.480,0.842,0.802,��쐼,1.9,��
2018/06/04,23:30,0.866,1.285,0.884,1.615,1.135,0.480,0.840,0.800,��,1.5,��
2018/06/04,23:40,0.865,1.288,0.885,1.612,1.136,0.480,0.838,0.802,��,1.9,��
2018/06/04,23:50,0.868,1.287,0.885,1.613,1.136,0.480,0.839,0.800,��,2.6,��
